FW7517 Weather Reports


Display with metric or nautical units.
time (UTC)temp
F
wind
direction
speed
MPH
gust
MPH
rain 1hr
in
rain 24hr
in
rain mn
in
humidity
%
barometer
mb
20260502170451 47 302 4.0 16.0 0.00 0.00 0.00 41 1015.4
20260502170411 47 310 7.0 16.0 0.00 0.00 0.00 43 1015.4
20260502163855 47 293 4.0 13.0 0.00 0.00 0.00 45 1015.8
20260502163327 46 321 3.0 13.0 0.00 0.00 0.00 48 1015.8
20260502162827 46 326 10.0 15.0 0.00 0.00 0.00 45 1015.8
20260502162328 46 305 8.0 15.0 0.00 0.00 0.00 47 1015.8
20260502161813 47 340 6.0 11.0 0.00 0.00 0.00 47 1015.8
20260502161307 46 318 3.0 14.0 0.00 0.00 0.00 45 1015.8
20260502160842 46 15 3.0 14.0 0.00 0.00 0.00 40 1015.8
20260502160234 46 350 7.0 15.0 0.00 0.00 0.00 42 1015.8
20260502152001 45 355 6.0 13.0 0.00 0.00 0.00 53 1015.8
20260502151454 45 343 1.0 13.0 0.00 0.00 0.00 56 1015.8
20260502151156 44 336 3.0 11.0 0.00 0.00 0.00 55 1016.1
20260502150428 43 311 1.0 10.0 0.00 0.00 0.00 55 1015.8
20260502130408 37 329 4.0 7.0 0.00 0.00 0.00 79 1017.2
20260502123800 35 328 1.0 8.0 0.00 0.00 0.00 82 1017.2
20260502123242 35 340 2.0 8.0 0.00 0.00 0.00 83 1016.9
20260502122955 35 293 2.0 7.0 0.00 0.00 0.00 83 1017.2
20260502122228 34 342 2.0 8.0 0.00 0.00 0.00 84 1017.2
20260502121705 34 342 4.0 7.0 0.00 0.00 0.00 84 1017.2
20260502121418 34 338 1.0 4.0 0.00 0.00 0.00 85 1017.2
20260502120628 33 343 2.0 6.0 0.00 0.00 0.00 86 1016.9
20260502120130 33 293 3.0 6.0 0.00 0.00 0.00 86 1016.9
20260502115622 33 4 3.0 6.0 0.00 0.00 0.00 87 1017.2
20260502115058 32 335 0.0 7.0 0.00 0.00 0.00 88 1017.2
20260502114746 32 305 1.0 6.0 0.00 0.00 0.00 88 1016.9
20260502114027 32 328 1.0 3.0 0.00 0.00 0.00 89 1016.9
20260502113523 32 312 1.0 6.0 0.00 0.00 0.00 89 1016.9
20260502113020 31 325 3.0 6.0 0.00 0.00 0.00 90 1016.9
20260502112507 31 318 0.0 3.0 0.00 0.00 0.00 91 1016.9
20260502111959 30 320 1.0 7.0 0.00 0.00 0.00 92 1016.9
20260502111715 29 314 3.0 7.0 0.00 0.00 0.00 93 1016.9
20260502110927 29 290 1.0 4.0 0.00 0.00 0.00 93 1016.9
20260502110428 28 335 1.0 2.0 0.00 0.00 0.00 93 1016.9
20260502105928 28 306 1.0 3.0 0.00 0.00 0.00 93 1016.9
20260502105413 28 322 1.0 3.0 0.00 0.00 0.00 94 1016.9
20260502104907 28 318 0.0 2.0 0.00 0.00 0.00 95 1016.9
20260502104403 28 324 2.0 2.0 0.00 0.00 0.00 95 1016.9
20260502103859 27 311 1.0 2.0 0.00 0.00 0.00 95 1016.5
20260502103555 28 299 0.0 2.0 0.00 0.00 0.00 95 1016.9
20260502102829 28 292 2.0 2.0 0.00 0.00 0.00 95 1016.9
20260502102539 28 300 0.0 3.0 0.00 0.00 0.00 95 1016.5
20260502101850 28 301 0.0 3.0 0.00 0.00 0.00 95 1016.9
20260502101009 28 308 2.0 3.0 0.00 0.00 0.00 95 1016.5
20260502100220 28 271 1.0 3.0 0.00 0.00 0.00 95 1016.9
20260502091018 28 311 0.0 0.0 0.00 0.00 0.00 95 1016.5
20260502090459 28 314 0.0 0.0 0.00 0.00 0.00 94 1016.9
20260502071453 26 311 0.0 1.0 0.00 0.00 0.00 99 1016.5
20260502071154 26 310 0.0 0.0 0.00 0.00 0.00 99 1016.5
20260502070428 26 311 0.0 0.0 0.00 0.00 0.00 99 1016.5
20260502065921 26 310 0.0 0.0 0.00 0.00 0.00 99 1016.5
20260502065418 26 310 0.0 0.0 0.00 0.00 0.00 99 1016.5
20260502064908 26 310 0.0 0.0 0.00 0.00 0.00 99 1016.1
20260502064400 26 311 0.0 0.0 0.00 0.00 0.00 99 1016.5
20260502063900 26 311 0.0 0.0 0.00 0.00 0.00 99 1016.5
20260502063336 26 311 0.0 0.0 0.00 0.00 0.00 99 1016.1
20260502063033 26 310 0.0 0.0 0.00 0.00 0.00 99 1016.5
20260502062259 26 311 0.0 0.0 0.00 0.00 0.00 99 1016.5
20260502062227 26 311 0.0 0.0 0.00 0.00 0.00 99 1016.9
20260502061235 26 311 0.0 0.0 0.00 0.00 0.00 99 1016.9
20260502060953 27 311 0.0 0.0 0.00 0.00 0.00 99 1016.5
20260502060159 27 311 0.0 0.0 0.00 0.00 0.00 99 1016.9
20260502055652 27 311 0.0 0.0 0.00 0.00 0.00 99 1016.5
20260502055127 27 311 0.0 0.0 0.00 0.00 0.00 99 1016.5
20260502054824 28 310 0.0 0.0 0.00 0.00 0.00 99 1016.5
20260502054050 28 310 0.0 0.0 0.00 0.00 0.00 99 1016.5
20260502053527 27 310 0.0 0.0 0.00 0.00 0.00 99 1016.9
20260502053013 27 310 0.0 0.0 0.00 0.00 0.00 99 1016.5
20260502052507 28 310 0.0 0.0 0.00 0.00 0.00 99 1016.5
20260502052002 28 310 0.0 0.0 0.00 0.00 0.00 99 1016.9
20260502051500 28 310 0.0 0.0 0.00 0.00 0.00 99 1016.5
20260502050935 28 310 0.0 0.0 0.00 0.00 0.00 99 1016.5
20260502050429 28 311 0.0 0.0 0.00 0.00 0.00 99 1016.5
20260502045900 28 310 0.0 0.0 0.00 0.00 0.00 99 1016.5
20260502045355 29 310 0.0 0.0 0.00 0.00 0.00 99 1016.5
20260502045056 29 310 0.0 0.0 0.00 0.00 0.00 99 1016.5
20260502044328 29 310 0.0 0.0 0.00 0.00 0.00 98 1016.5
20260502043821 30 310 0.0 0.0 0.00 0.00 0.00 98 1016.5
20260502043254 30 310 0.0 0.0 0.00 0.00 0.00 98 1016.5
20260502042727 30 310 0.0 0.0 0.00 0.00 0.00 97 1016.5
20260502042228 31 310 0.0 0.0 0.00 0.00 0.00 95 1016.5
20260502041720 31 310 0.0 0.0 0.00 0.00 0.00 94 1016.5
20260502041214 32 310 0.0 1.0 0.00 0.00 0.00 93 1016.9
20260502040708 32 309 0.0 1.0 0.00 0.00 0.00 93 1016.5
20260502040202 33 323 0.0 0.0 0.00 0.00 0.00 91 1016.5
20260502035654 33 323 0.0 0.0 0.00 0.00 0.00 91 1016.5
20260502035124 33 323 0.0 1.0 0.00 0.00 0.00 90 1016.5
20260502034841 33 323 0.0 1.0 0.00 0.00 0.00 90 1016.5
20260502034100 33 323 0.0 1.0 0.00 0.00 0.00 89 1016.9
20260502033543 33 323 0.0 1.0 0.00 0.00 0.00 90 1016.5
20260502033035 33 324 0.0 1.0 0.00 0.00 0.00 89 1016.5
20260502032528 33 324 1.0 1.0 0.00 0.00 0.00 89 1016.9
20260502032021 34 325 0.0 1.0 0.00 0.00 0.00 88 1016.5
20260502031453 34 325 0.0 1.0 0.00 0.00 0.00 88 1016.5
20260502030928 34 325 0.0 1.0 0.00 0.00 0.00 87 1016.5
20260502030408 34 325 0.0 1.0 0.00 0.00 0.00 87 1016.5
20260502030106 34 324 0.0 1.0 0.00 0.00 0.00 87 1016.5
20260502025347 34 325 0.0 1.0 0.00 0.00 0.00 86 1016.5
20260502024836 34 325 0.0 1.0 0.00 0.00 0.00 86 1016.9
20260502024325 34 324 0.0 0.0 0.00 0.00 0.00 86 1016.5
20260502023821 34 325 0.0 0.0 0.00 0.00 0.00 87 1016.9
20260502023300 34 325 0.0 0.0 0.00 0.00 0.00 86 1016.5
20260502022956 34 325 0.0 0.0 0.00 0.00 0.00 85 1016.5
20260502022227 34 325 0.0 0.0 0.00 0.00 0.00 84 1016.9
20260502021701 34 325 0.0 1.0 0.00 0.00 0.00 83 1016.5
20260502021151 35 325 0.0 1.0 0.00 0.00 0.00 83 1016.5
20260502020852 35 325 0.0 1.0 0.00 0.00 0.00 81 1016.5
20260502020129 35 325 1.0 1.0 0.00 0.00 0.00 81 1016.5
20260502015604 35 323 1.0 3.0 0.00 0.00 0.00 80 1016.5
20260502015054 35 334 1.0 3.0 0.00 0.00 0.00 81 1016.9
20260502014528 34 336 1.0 1.0 0.00 0.00 0.00 82 1016.5
20260502014029 33 336 0.0 0.0 0.00 0.00 0.00 85 1016.9
20260502013744 33 336 0.0 0.0 0.00 0.00 0.00 85 1016.5
20260502013013 34 336 0.0 0.0 0.00 0.00 0.00 82 1016.5
20260502012507 35 336 0.0 0.0 0.00 0.00 0.00 81 1016.5
20260502012001 35 336 0.0 0.0 0.00 0.00 0.00 80 1016.5
20260502011500 35 336 0.0 0.0 0.00 0.00 0.00 78 1016.5
20260502011157 36 336 0.0 0.0 0.00 0.00 0.00 78 1016.5
20260502010651 36 336 0.0 0.0 0.00 0.00 0.00 78 1016.1
20260502010124 36 336 0.0 0.0 0.00 0.00 0.00 78 1016.5
20260502005343 36 336 0.0 1.0 0.00 0.00 0.00 77 1016.1
20260502004835 37 338 0.0 2.0 0.00 0.00 0.00 74 1016.1
20260502004329 37 340 0.0 2.0 0.00 0.00 0.00 72 1015.8
20260502003759 37 346 2.0 3.0 0.00 0.00 0.00 71 1016.1
20260502003252 37 327 2.0 3.0 0.00 0.00 0.00 71 1016.1
20260502002727 37 359 0.0 2.0 0.00 0.00 0.00 72 1015.8
20260502002224 37 5 0.0 2.0 0.00 0.00 0.00 72 1015.8
20260502001723 37 341 0.0 1.0 0.00 0.00 0.00 75 1016.1
20260502001159 37 338 0.0 0.0 0.00 0.00 0.00 75 1016.1
20260502000635 37 339 0.0 1.0 0.00 0.00 0.00 73 1015.8
20260502000127 37 341 0.0 1.0 0.00 0.00 0.00 76 1015.8
20260501235621 37 334 0.0 1.0 0.00 0.00 0.00 75 1015.8
20260501235100 37 341 1.0 2.0 0.00 0.00 0.00 73 1015.8
20260501234533 37 342 0.0 2.0 0.00 0.00 0.00 74 1015.8
20260501234027 37 349 1.0 3.0 0.00 0.00 0.00 72 1015.8
20260501233502 37 347 1.0 4.0 0.00 0.00 0.00 73 1015.8
20260501232951 37 323 2.0 7.0 0.00 0.00 0.00 72 1015.8
20260501232435 37 20 3.0 8.0 0.00 0.00 0.00 70 1015.8
20260501232153 38 346 6.0 8.0 0.00 0.00 0.00 65 1015.8
20260501231404 39 342 2.0 6.0 0.00 0.00 0.00 64 1015.8
20260501231126 39 337 2.0 4.0 0.00 0.00 0.00 63 1015.8
20260501230357 39 348 2.0 4.0 0.00 0.00 0.00 63 1015.4
20260501225828 39 345 1.0 6.0 0.00 0.00 0.00 62 1015.4
20260501225322 39 339 1.0 6.0 0.00 0.00 0.00 63 1015.8
20260501224812 39 319 2.0 4.0 0.00 0.00 0.00 63 1015.1
20260501224309 39 337 2.0 6.0 0.00 0.00 0.00 65 1015.4
20260501223801 39 341 3.0 6.0 0.00 0.00 0.00 64 1015.4
20260501223259 40 327 1.0 4.0 0.00 0.00 0.00 65 1015.4
20260501222736 40 347 4.0 4.0 0.00 0.00 0.00 63 1015.4
20260501222227 40 347 2.0 4.0 0.00 0.00 0.00 65 1015.4
20260501221659 40 339 2.0 4.0 0.00 0.00 0.00 66 1015.4
20260501221154 40 22 2.0 6.0 0.00 0.00 0.00 62 1015.1
20260501221118 40 340 4.0 7.0 0.00 0.00 0.00 64 1015.4
20260501220355 40 340 1.0 6.0 0.00 0.00 0.00 65 1015.1
20260501215600 40 332 2.0 4.0 0.00 0.00 0.00 65 1015.1
20260501215053 40 338 1.0 4.0 0.00 0.00 0.00 66 1015.1
20260501214528 40 343 1.0 4.0 0.00 0.00 0.00 65 1014.7
20260501214225 40 329 1.0 4.0 0.00 0.00 0.00 65 1015.1
20260501213932 40 345 2.0 4.0 0.00 0.00 0.00 65 1015.1
20260501212927 41 330 1.0 8.0 0.00 0.00 0.00 63 1015.1
20260501212634 40 345 2.0 8.0 0.00 0.00 0.00 56 1015.1
20260501212129 40 339 3.0 7.0 0.00 0.00 0.00 57 1015.1
20260501211400 40 310 3.0 7.0 0.00 0.00 0.00 60 1014.7
20260501210901 40 318 2.0 7.0 0.00 0.00 0.00 57 1014.7
20260501210334 40 317 3.0 10.0 0.00 0.00 0.00 57 1014.7
20260501205827 40 313 5.0 10.0 0.00 0.00 0.00 56 1014.7
20260501205305 40 323 6.0 9.0 0.00 0.00 0.00 57 1014.7
20260501205016 41 312 7.0 14.0 0.00 0.00 0.00 59 1014.7
20260501204235 41 358 9.0 14.0 0.00 0.00 0.00 57 1014.4
20260501203726 41 286 4.0 6.0 0.00 0.00 0.00 58 1014.7
20260501203445 41 31 2.0 11.0 0.00 0.00 0.00 57 1014.7
20260501203151 41 343 5.0 13.0 0.00 0.00 0.00 56 1014.7
20260501202156 41 16 4.0 13.0 0.00 0.00 0.00 57 1014.7
20260501201629 41 349 8.0 13.0 0.00 0.00 0.00 57 1014.7
20260501201101 41 342 8.0 13.0 0.00 0.00 0.00 57 1014.7
20260501200540 42 357 8.0 13.0 0.00 0.00 0.00 55 1014.7
20260501200027 42 339 2.0 11.0 0.00 0.00 0.00 56 1014.7
20260501195524 41 323 5.0 11.0 0.00 0.00 0.00 54 1014.7
20260501195021 41 350 5.0 11.0 0.00 0.00 0.00 54 1014.4
20260501194500 41 345 5.0 11.0 0.00 0.00 0.00 57 1014.7
20260501194000 41 310 5.0 10.0 0.00 0.00 0.00 60 1014.4
20260501193459 41 324 6.0 10.0 0.00 0.00 0.00 60 1014.4
20260501192955 42 356 4.0 7.0 0.00 0.02 0.00 59 1014.7
20260501192433 41 322 2.0 10.0 0.00 0.02 0.00 59 1014.7
20260501192150 41 344 6.0 10.0 0.00 0.02 0.00 55 1014.7
20260501191401 41 299 6.0 10.0 0.00 0.02 0.00 56 1014.4
20260501190853 41 323 7.0 10.0 0.00 0.02 0.00 61 1014.4
20260501190327 41 355 2.0 10.0 0.00 0.02 0.00 65 1014.4
20260501185807 41 294 6.0 9.0 0.00 0.02 0.00 63 1014.7
20260501185519 40 337 6.0 9.0 0.00 0.02 0.00 63 1014.7
20260501185005 40 321 2.0 9.0 0.00 0.02 0.00 64 1014.4
20260501184459 40 314 4.0 10.0 0.00 0.02 0.00 65 1014.7
20260501183955 40 298 4.0 10.0 0.00 0.04 0.00 63 1014.7
20260501183447 40 7 4.0 10.0 0.00 0.04 0.00 64 1014.7
20260501182659 40 320 4.0 10.0 0.00 0.04 0.00 67 1014.7
20260501182133 41 275 6.0 9.0 0.00 0.04 0.00 64 1014.4
20260501181628 41 308 6.0 11.0 0.00 0.04 0.00 62 1014.4
20260501181120 42 306 8.0 11.0 0.00 0.04 0.00 61 1014.1
20260501180613 42 1 3.0 8.0 0.00 0.04 0.00 60 1014.4
20260501180107 42 348 1.0 8.0 0.00 0.04 0.00 66 1014.1
20260501175551 42 16 2.0 4.0 0.00 0.04 0.00 68 1014.7
20260501175040 41 335 2.0 7.0 0.00 0.04 0.00 69 1014.4
20260501174533 40 337 5.0 7.0 0.00 0.04 0.00 68 1014.4
20260501174033 40 29 1.0 4.0 0.00 0.04 0.00 70 1014.4
20260501173523 40 344 1.0 6.0 0.00 0.04 0.00 71 1014.4
20260501173019 40 348 3.0 6.0 0.00 0.04 0.00 70 1014.4
20260501172949 40 319 3.0 7.0 0.00 0.04 0.00 69 1014.4
20260501171959 40 351 5.0 7.0 0.00 0.04 0.00 69 1014.4